This is the latest recevied weather packets stored in our database for station/object KC5DAQ-25. If no packets are shown the sender has not sent any weather packets the latest 10 day(s).
| Time | Temp. | Humidity | Pressure | Rain* | Wind** | Luminosity | Snow |
|---|---|---|---|---|---|---|---|
| 1777408717 | 32.78° C | 63% | 1003 hPa | 0 mm | - | 141 W/m² | - |
| 1777408655 | 32.78° C | 64% | 1002.9 hPa | 0 mm | - | 141 W/m² | - |
| 1777408596 | 32.78° C | 64% | 1003 hPa | 0 mm | - | 139 W/m² | - |
| 1777408536 | 32.78° C | 64% | 1003 hPa | 0 mm | - | 137 W/m² | - |
| 1777408475 | 32.78° C | 64% | 1003.1 hPa | 0 mm | - | 134 W/m² | - |
| 1777408415 | 32.78° C | 63% | 1003.1 hPa | 0 mm | - | 134 W/m² | - |
| 1777408355 | 32.78° C | 65% | 1003.1 hPa | 0 mm | - | 134 W/m² | - |
| 1777408295 | 32.78° C | 65% | 1003.1 hPa | 0 mm | - | 134 W/m² | - |
| 1777408235 | 32.78° C | 65% | 1003.2 hPa | 0 mm | - | 130 W/m² | - |
| 1777408175 | 32.78° C | 63% | 1003.1 hPa | 0 mm | - | 130 W/m² | - |
| 1777408117 | 32.22° C | 64% | 1003.2 hPa | 0 mm | - | 130 W/m² | - |
| 1777408055 | 32.78° C | 64% | 1003.2 hPa | 0 mm | - | 130 W/m² | - |
| 1777407997 | 32.78° C | 64% | 1003.3 hPa | 0 mm | - | 146 W/m² | - |
| 1777407936 | 32.78° C | 63% | 1003.3 hPa | 0 mm | - | 146 W/m² | - |
| 1777407876 | 32.78° C | 65% | 1003.4 hPa | 0 mm | - | 146 W/m² | - |
| 1777407815 | 32.78° C | 64% | 1003.3 hPa | 0 mm | - | 146 W/m² | - |
| 1777407756 | 32.78° C | 65% | 1003.4 hPa | 0 mm | - | 306 W/m² | - |
| 1777407695 | 32.78° C | 65% | 1003.4 hPa | 0 mm | - | 306 W/m² | - |
| 1777407635 | 32.78° C | 64% | 1003.4 hPa | 0 mm | - | 306 W/m² | - |
| 1777407575 | 32.78° C | 64% | 1003.5 hPa | 0 mm | - | 986 W/m² | - |
| 1777407515 | 32.78° C | 64% | 1003.6 hPa | 0 mm | - | 986 W/m² | - |
| 1777407455 | 32.78° C | 64% | 1003.6 hPa | 0 mm | - | 986 W/m² | - |
| 1777407395 | 32.78° C | 64% | 1003.6 hPa | 0 mm | - | 986 W/m² | - |
| 1777407336 | 32.78° C | 62% | 1003.6 hPa | 0 mm | - | 986 W/m² | - |
| 1777407275 | 32.78° C | 66% | 1003.6 hPa | 0 mm | - | 993 W/m² | - |
* Rain latest hour (hover to see other rain measurements)
** Current wind speed in m/s (hover to see current wind gust speed)